Location: North Mitre
(40.7833°S, 175.4667°E)
Time: 04:07:46
(UTC+00:00)

Cosmos 2074 Rocket - Pass Details

Date: 04 August 2024
Orbit: 966 x 986 km, 82.9° (Epoch: 07 September)

Event Time Altitude Azimuth Distance (km) Brightness Sun altitude
Rises 18:49:57 0° 350° (N) 3,653 7.1 -6.3°
Reaches altitude 10° 18:52:27 10° 348° (NNW) 2,712 6.4 -5.8°
Maximum altitude 18:58:40 76° 262° (W) 1,008 4.0 -4.7°
Drops below altitude 10° 19:04:58 10° 176° (S) 2,740 6.2 -3.6°
Sets 19:07:30 0° 174° (S) 3,693 6.9 -3.1°
